Location: U-46 Planetarium
(42.0300°N, 88.2740°W)
Time: 02:38:16
(UTC-05:00)

CSL-04 Debris - Pass Details

Date: 16 December 2017
Orbit: 827 x 849 km, 99.0° (Epoch: 20 April)

Event Time Altitude Azimuth Distance (km) Brightness Sun altitude
Rises 17:01:42 0° 157° (SSE) 3,354 7.4 -7.2°
Reaches altitude 10° 17:04:03 10° 155° (SSE) 2,423 6.6 -7.6°
Maximum altitude 17:09:23 70° 73° (ENE) 879 4.1 -8.5°
Drops below altitude 10° 17:14:45 10° 351° (N) 2,441 6.5 -9.4°
Sets 17:17:07 0° 349° (N) 3,380 7.2 -9.8°
